Vancouver Int'l Airport, British Columbia

Past 24 Hour Conditions

This table is a summary of hourly weather conditions for the past 24 hours. This summary includes the following parameters: temperature, humidity, dew point, wind speed and direction, air pressure, visibility and/or wind chill and humidex.
Date / Time
(PDT)
Conditions Temp (°C) Humidity (%) Dew Point (°C) Wind (km/h) Pressure (kPa) Vis (km) Humidex
28 July 2014
7:00 Mainly Sunny 17 89 15 WNW 4 102.0 48 *
6:00 Sunny 15   92 14 N 2 102.0 48 *
5:00 Clear 15   94 14 N 2 102.0 32 *
4:00 Clear 16 88 14 ESE 3 102.0 24 *
3:00 Clear 15   86 13 E 9 101.9 24 *
2:00 Clear 17 88 15 E 13 101.9 24 *
1:00 Clear 17 87 15 E 10 101.9 24 *
00:00 Clear 18 82 15 E 8 101.9 24 *
27 July 2014
23:00 Clear 18 84 16 SSW 14 101.9 24 *
22:00 Clear 19 80 16 SW 6 101.9 48 *
21:00 Clear 20 83 17 W 5 101.8 48 *
20:00 Sunny 22 74 17 WNW 10 101.8 48 27
19:00 Sunny 22 69 16 W 14 101.9 48 27
18:00 Mainly Sunny 23   70 17 WNW 18 101.9 48 28
17:00 Mainly Sunny 23   68 17 W 14 102.0 48 28
16:00 Mainly Sunny 23   69 17 WSW 14 102.0 48 29
15:00 Mainly Sunny 23   63 16 WNW 16 102.1 48 28
14:00 Mainly Sunny 22 67 16 W 18 102.1 48 27
13:00 Mainly Sunny 22 67 16 W 14 102.2 48 27
12:00 Mainly Sunny 21 74 16 W 16 102.2 48 26
11:00 Mainly Sunny 20 78 16 SW 15 102.3 48 *
10:00 Mainly Sunny 19 79 15 SW 14 102.3 48 *
9:00 Mainly Sunny 18 81 15 SW 10 102.3 48 *
8:00 Sunny 17 86 15 SW 7 102.3 48 *
7:00 Sunny 16 89 14 SSE 6 102.3 48 *
N/A
Not available
 ↑ 
Highest temperature
 ↓ 
Lowest temperature
*
Value not significant.

If you require additional historical weather information, please visit Climate Data Online.